This is the latest recevied weather packets stored in our database for station/object YM2KA-13. If no packets are shown the sender has not sent any weather packets the latest 10 day(s).
| Time | Temp. | Humidity | Pressure | Rain* | Wind** | Luminosity | Snow |
|---|---|---|---|---|---|---|---|
| 1788094223 | 23.89° C | 47% | 1008.5 hPa | 0 mm | - | - | - |
| 1788093615 | 23.89° C | 47% | 1008.5 hPa | 0 mm | - | - | - |
| 1788093482 | 23.89° C | 47% | 1008.5 hPa | 0 mm | - | - | - |
| 1788093015 | 24.44° C | 46% | 1008.5 hPa | 0 mm | - | - | - |
| 1788092589 | 24.44° C | 46% | 1008.6 hPa | 0 mm | - | - | - |
| 1788092416 | 24.44° C | 47% | 1008.5 hPa | 0 mm | - | - | - |
| 1788091818 | 24.44° C | 47% | 1008.7 hPa | 0 mm | - | - | - |
| 1788091686 | 24.44° C | 47% | 1008.7 hPa | 0 mm | - | - | - |
| 1788091218 | 23.89° C | 48% | 1008.8 hPa | 0 mm | - | - | - |
| 1788090782 | 23.89° C | 49% | 1008.9 hPa | 0 mm | - | - | - |
| 1788090619 | 23.89° C | 49% | 1009 hPa | 0 mm | - | - | - |
| 1788090021 | 23.33° C | 50% | 1008.9 hPa | 0 mm | - | - | - |
| 1788089889 | 23.33° C | 51% | 1009 hPa | 0 mm | - | - | - |
| 1788089422 | 23.33° C | 52% | 1009 hPa | 0 mm | - | - | - |
| 1788088985 | 22.78° C | 52% | 1009 hPa | 0 mm | - | - | - |
| 1788088823 | 22.78° C | 53% | 1009 hPa | 0 mm | - | - | - |
| 1788088214 | 22.78° C | 52% | 1009 hPa | 0 mm | - | - | - |
| 1788088082 | 23.33° C | 52% | 1009 hPa | 0 mm | - | - | - |
| 1788087615 | 22.78° C | 54% | 1009 hPa | 0 mm | - | - | - |
| 1788087189 | 22.78° C | 56% | 1009.1 hPa | 0 mm | - | - | - |
| 1788087016 | 22.78° C | 55% | 1009.1 hPa | 0 mm | - | - | - |
| 1788086417 | 22.22° C | 58% | 1009.3 hPa | 0 mm | - | - | - |
| 1788086284 | 22.22° C | 57% | 1009.3 hPa | 0 mm | - | - | - |
| 1788085817 | 21.67° C | 59% | 1009.3 hPa | 0 mm | - | - | - |
| 1788085381 | 21.67° C | 60% | 1009.3 hPa | 0 mm | - | - | - |
* Rain latest hour (hover to see other rain measurements)
** Current wind speed in m/s (hover to see current wind gust speed)